Time,TemperatureF,DewpointF,PressureIn,WindDirection,WindDirectionDegrees,WindSpeedMPH,WindSpeedGustMPH,Humidity,HourlyPrecipIn,Conditions,Clouds,dailyrainin,SoftwareType,DateUTC
2013-06-28 00:00:00,59.4,58.3,29.92,East,101,3.0,3.0,96,0.00,,,0.00,Wunderground v.1.15,2013-06-28 04:00:00,
2013-06-28 00:05:00,59.4,58.3,29.92,East,90,3.0,3.0,96,0.00,,,0.00,Wunderground v.1.15,2013-06-28 04:05:00,
2013-06-28 00:15:00,59.2,58.1,29.92,ESE,117,3.0,3.0,96,0.00,,,0.00,Wunderground v.1.15,2013-06-28 04:15:00,
2013-06-28 00:20:00,59.2,58.1,29.92,ESE,104,3.0,3.0,96,0.00,,,0.00,Wunderground v.1.15,2013-06-28 04:20:00,
2013-06-28 00:25:00,59.1,58.0,29.92,East,95,2.0,3.0,96,0.00,,,0.00,Wunderground v.1.15,2013-06-28 04:25:00,
2013-06-28 00:30:00,59.1,58.0,29.92,ENE,67,3.0,4.0,96,0.00,,,0.00,Wunderground v.1.15,2013-06-28 04:30:00,
2013-06-28 00:35:00,59.1,58.0,29.92,ENE,69,2.0,4.0,96,0.00,,,0.00,Wunderground v.1.15,2013-06-28 04:35:00,
2013-06-28 00:40:00,59.1,58.0,29.92,NE,54,2.0,2.0,96,0.00,,,0.00,Wunderground v.1.15,2013-06-28 04:40:00,
2013-06-28 00:45:00,59.1,58.0,29.92,ESE,112,2.0,4.0,96,0.00,,,0.00,Wunderground v.1.15,2013-06-28 04:45:00,
2013-06-28 00:50:00,59.0,57.9,29.92,NNE,28,3.0,3.0,96,0.00,,,0.00,Wunderground v.1.15,2013-06-28 04:50:00,
2013-06-28 00:55:00,59.0,57.9,29.91,ENE,65,3.0,3.0,96,0.00,,,0.00,Wunderground v.1.15,2013-06-28 04:55:00,
2013-06-28 01:00:00,58.9,57.8,29.91,East,97,3.0,3.0,96,0.00,,,0.00,Wunderground v.1.15,2013-06-28 05:00:00,
2013-06-28 01:05:00,58.8,57.7,29.91,ENE,64,4.0,4.0,96,0.00,,,0.00,Wunderground v.1.15,2013-06-28 05:05:00,
2013-06-28 01:10:00,58.7,57.6,29.91,ENE,73,3.0,3.0,96,0.00,,,0.00,Wunderground v.1.15,2013-06-28 05:10:00,
2013-06-28 01:15:00,58.7,57.6,29.92,ENE,70,3.0,3.0,96,0.00,,,0.00,Wunderground v.1.15,2013-06-28 05:15:00,
2013-06-28 01:25:00,58.6,57.5,29.90,East,92,4.0,6.0,96,0.00,,,0.00,Wunderground v.1.15,2013-06-28 05:25:00,
2013-06-28 01:30:00,58.4,57.3,29.89,NE,51,5.0,5.0,96,0.00,,,0.00,Wunderground v.1.15,2013-06-28 05:30:00,
2013-06-28 01:35:00,58.2,57.1,29.89,ENE,78,6.0,7.0,96,0.00,,,0.00,Wunderground v.1.15,2013-06-28 05:35:00,
2013-06-28 01:40:00,58.2,57.1,29.89,ENE,75,5.0,5.0,96,0.00,,,0.00,Wunderground v.1.15,2013-06-28 05:40:00,
2013-06-28 01:45:00,58.1,57.0,29.89,ENE,76,4.0,5.0,96,0.00,,,0.00,Wunderground v.1.15,2013-06-28 05:45:00,
2013-06-28 01:50:00,58.1,57.3,29.89,East,90,4.0,5.0,97,0.00,,,0.00,Wunderground v.1.15,2013-06-28 05:50:00,
2013-06-28 01:55:00,58.1,57.3,29.89,ENE,77,3.0,6.0,97,0.00,,,0.00,Wunderground v.1.15,2013-06-28 05:55:00,
2013-06-28 02:00:00,58.0,57.2,29.88,ESE,115,4.0,7.0,97,0.00,,,0.00,Wunderground v.1.15,2013-06-28 06:00:00,
2013-06-28 02:05:00,57.9,56.8,29.88,NE,56,5.0,7.0,96,0.00,,,0.00,Wunderground v.1.15,2013-06-28 06:05:00,
2013-06-28 02:10:00,57.9,56.8,29.89,ENE,58,5.0,5.0,96,0.00,,,0.00,Wunderground v.1.15,2013-06-28 06:10:00,
2013-06-28 02:15:00,57.9,57.1,29.88,ESE,106,4.0,10.0,97,0.00,,,0.00,Wunderground v.1.15,2013-06-28 06:15:00,
2013-06-28 02:20:00,57.8,57.0,29.89,ESE,119,4.0,7.0,97,0.00,,,0.00,Wunderground v.1.15,2013-06-28 06:20:00,
2013-06-28 02:25:00,57.8,57.0,29.88,East,92,4.0,7.0,97,0.00,,,0.00,Wunderground v.1.15,2013-06-28 06:25:00,
2013-06-28 02:35:00,57.7,56.9,29.88,East,82,5.0,9.0,97,0.00,,,0.01,Wunderground v.1.15,2013-06-28 06:35:00,
2013-06-28 02:40:00,57.6,56.8,29.88,ESE,118,5.0,5.0,97,0.00,,,0.01,Wunderground v.1.15,2013-06-28 06:40:00,
2013-06-28 02:45:00,57.6,56.8,29.88,ENE,76,4.0,5.0,97,0.00,,,0.01,Wunderground v.1.15,2013-06-28 06:45:00,
2013-06-28 02:50:00,57.6,56.8,29.88,ESE,111,4.0,4.0,97,0.00,,,0.02,Wunderground v.1.15,2013-06-28 06:50:00,
2013-06-28 02:55:00,57.5,56.7,29.87,ENE,63,4.0,6.0,97,0.24,,,0.03,Wunderground v.1.15,2013-06-28 06:55:00,
2013-06-28 03:00:00,57.4,56.6,29.86,ENE,77,5.0,5.0,97,0.12,,,0.04,Wunderground v.1.15,2013-06-28 07:00:00,
2013-06-28 03:05:00,57.3,56.5,29.87,ESE,109,5.0,8.0,97,0.08,,,0.05,Wunderground v.1.15,2013-06-28 07:05:00,
2013-06-28 03:10:00,57.2,56.4,29.87,ESE,111,5.0,5.0,97,0.08,,,0.05,Wunderground v.1.15,2013-06-28 07:10:00,
2013-06-28 03:20:00,57.0,56.2,29.87,NE,49,4.0,4.0,97,0.00,,,0.05,Wunderground v.1.15,2013-06-28 07:20:00,
2013-06-28 03:25:00,56.9,56.1,29.86,ESE,115,4.0,10.0,97,0.00,,,0.05,Wunderground v.1.15,2013-06-28 07:25:00,
2013-06-28 03:30:00,56.7,55.9,29.86,NE,50,3.0,3.0,97,0.00,,,0.05,Wunderground v.1.15,2013-06-28 07:30:00,
2013-06-28 03:35:00,56.6,55.5,29.85,ENE,61,3.0,5.0,96,0.00,,,0.05,Wunderground v.1.15,2013-06-28 07:35:00,
2013-06-28 03:45:00,56.5,55.4,29.85,ENE,59,3.0,3.0,96,0.00,,,0.05,Wunderground v.1.15,2013-06-28 07:45:00,
2013-06-28 03:50:00,56.4,55.6,29.84,NE,53,4.0,6.0,97,0.00,,,0.05,Wunderground v.1.15,2013-06-28 07:50:00,
2013-06-28 03:55:00,56.3,55.5,29.84,ENE,76,4.0,6.0,97,0.00,,,0.05,Wunderground v.1.15,2013-06-28 07:55:00,
2013-06-28 04:00:00,56.1,55.0,29.84,ENE,72,5.0,5.0,96,0.00,,,0.05,Wunderground v.1.15,2013-06-28 08:00:00,
2013-06-28 04:05:00,56.0,54.9,29.83,ESE,109,6.0,9.0,96,0.00,,,0.06,Wunderground v.1.15,2013-06-28 08:05:00,
2013-06-28 04:10:00,55.8,55.0,29.83,East,79,7.0,8.0,97,0.00,,,0.06,Wunderground v.1.15,2013-06-28 08:10:00,
2013-06-28 04:15:00,55.8,55.0,29.83,NE,56,7.0,8.0,97,0.00,,,0.06,Wunderground v.1.15,2013-06-28 08:15:00,
2013-06-28 04:20:00,55.7,54.9,29.82,ENE,69,6.0,10.0,97,0.00,,,0.06,Wunderground v.1.15,2013-06-28 08:20:00,
2013-06-28 04:25:00,55.5,54.7,29.82,ENE,78,7.0,10.0,97,0.00,,,0.07,Wunderground v.1.15,2013-06-28 08:25:00,
2013-06-28 04:30:00,55.4,54.6,29.82,East,96,7.0,7.0,97,0.13,,,0.08,Wunderground v.1.15,2013-06-28 08:30:00,
2013-06-28 04:35:00,55.4,54.6,29.82,East,82,7.0,7.0,97,0.10,,,0.09,Wunderground v.1.15,2013-06-28 08:35:00,
2013-06-28 04:40:00,55.4,54.6,29.81,ENE,67,8.0,8.0,97,0.12,,,0.10,Wunderground v.1.15,2013-06-28 08:40:00,
2013-06-28 04:45:00,55.4,54.6,29.81,East,95,7.0,8.0,97,0.08,,,0.10,Wunderground v.1.15,2013-06-28 08:45:00,
2013-06-28 04:55:00,55.4,54.6,29.81,ESE,103,6.0,9.0,97,0.00,,,0.10,Wunderground v.1.15,2013-06-28 08:55:00,
2013-06-28 05:00:00,55.4,54.6,29.81,East,99,5.0,10.0,97,0.00,,,0.10,Wunderground v.1.15,2013-06-28 09:00:00,
2013-06-28 05:05:00,55.4,54.6,29.81,ENE,72,6.0,10.0,97,0.00,,,0.11,Wunderground v.1.15,2013-06-28 09:05:00,
2013-06-28 05:10:00,55.4,54.6,29.80,ENE,61,6.0,6.0,97,0.25,,,0.13,Wunderground v.1.15,2013-06-28 09:10:00,
2013-06-28 05:15:00,55.5,54.7,29.80,ESE,120,6.0,6.0,97,0.25,,,0.16,Wunderground v.1.15,2013-06-28 09:15:00,
2013-06-28 05:25:00,55.5,54.7,29.80,NE,55,7.0,10.0,97,0.50,,,0.25,Wunderground v.1.15,2013-06-28 09:25:00,
2013-06-28 05:35:00,55.5,54.7,29.80,NE,53,4.0,6.0,97,0.29,,,0.30,Wunderground v.1.15,2013-06-28 09:35:00,
2013-06-28 05:45:00,55.5,54.7,29.79,NE,45,6.0,7.0,97,0.15,,,0.32,Wunderground v.1.15,2013-06-28 09:45:00,
2013-06-28 05:50:00,55.5,54.7,29.78,ENE,71,6.0,14.0,97,0.11,,,0.33,Wunderground v.1.15,2013-06-28 09:50:00,
2013-06-28 05:55:00,55.6,54.8,29.79,NE,53,6.0,14.0,97,0.07,,,0.33,Wunderground v.1.15,2013-06-28 09:55:00,
2013-06-28 06:00:00,55.6,54.8,29.79,ENE,72,6.0,6.0,97,0.06,,,0.34,Wunderground v.1.15,2013-06-28 10:00:00,
2013-06-28 06:05:00,55.7,54.9,29.81,ESE,115,4.0,6.0,97,0.26,,,0.37,Wunderground v.1.15,2013-06-28 10:05:00,
2013-06-28 06:10:00,55.7,54.9,29.81,ESE,105,3.0,3.0,97,0.12,,,0.38,Wunderground v.1.15,2013-06-28 10:10:00,
2013-06-28 06:15:00,55.7,54.9,29.80,NE,49,2.0,3.0,97,0.43,,,0.42,Wunderground v.1.15,2013-06-28 10:15:00,
2013-06-28 06:20:00,55.7,54.9,29.80,ENE,57,2.0,4.0,97,0.09,,,0.42,Wunderground v.1.15,2013-06-28 10:20:00,
2013-06-28 06:25:00,55.7,54.9,29.79,East,88,3.0,4.0,97,0.06,,,0.43,Wunderground v.1.15,2013-06-28 10:25:00,
2013-06-28 06:30:00,55.8,55.0,29.79,ESE,114,4.0,4.0,97,0.06,,,0.43,Wunderground v.1.15,2013-06-28 10:30:00,
2013-06-28 06:35:00,55.8,55.0,29.79,NE,47,4.0,4.0,97,0.06,,,0.43,Wunderground v.1.15,2013-06-28 10:35:00,
2013-06-28 06:40:00,55.8,55.0,29.79,NE,44,3.0,3.0,97,0.04,,,0.43,Wunderground v.1.15,2013-06-28 10:40:00,
2013-06-28 06:45:00,55.8,55.0,29.79,NE,36,3.0,5.0,97,0.00,,,0.43,Wunderground v.1.15,2013-06-28 10:45:00,
2013-06-28 06:50:00,55.8,55.0,29.79,ENE,59,3.0,4.0,97,0.00,,,0.43,Wunderground v.1.15,2013-06-28 10:50:00,
2013-06-28 06:55:00,55.9,55.1,29.79,ENE,68,3.0,4.0,97,0.00,,,0.43,Wunderground v.1.15,2013-06-28 10:55:00,
2013-06-28 07:00:00,55.9,55.1,29.79,ENE,70,3.0,3.0,97,0.00,,,0.43,Wunderground v.1.15,2013-06-28 11:00:00,
2013-06-28 07:05:00,55.9,55.1,29.79,NE,55,3.0,3.0,97,0.00,,,0.43,Wunderground v.1.15,2013-06-28 11:05:00,
2013-06-28 07:10:00,55.9,55.1,29.79,NE,40,2.0,2.0,97,0.00,,,0.43,Wunderground v.1.15,2013-06-28 11:10:00,
2013-06-28 07:15:00,55.9,55.1,29.79,ENE,61,2.0,3.0,97,0.00,,,0.44,Wunderground v.1.15,2013-06-28 11:15:00,
2013-06-28 07:20:00,55.9,55.1,29.79,NE,46,3.0,3.0,97,0.00,,,0.44,Wunderground v.1.15,2013-06-28 11:20:00,
2013-06-28 07:25:00,56.0,55.2,29.79,ENE,58,3.0,3.0,97,0.00,,,0.44,Wunderground v.1.15,2013-06-28 11:25:00,
2013-06-28 07:30:00,56.0,55.2,29.79,ENE,68,3.0,3.0,97,0.00,,,0.44,Wunderground v.1.15,2013-06-28 11:30:00,
2013-06-28 07:35:00,56.0,55.2,29.79,ENE,63,3.0,6.0,97,0.00,,,0.44,Wunderground v.1.15,2013-06-28 11:35:00,
2013-06-28 07:40:00,56.0,55.2,29.78,NE,49,3.0,3.0,97,0.00,,,0.44,Wunderground v.1.15,2013-06-28 11:40:00,
2013-06-28 07:45:00,56.0,55.2,29.78,NNW,332,4.0,4.0,97,0.00,,,0.44,Wunderground v.1.15,2013-06-28 11:45:00,
2013-06-28 07:50:00,56.0,55.2,29.78,NNE,23,4.0,4.0,97,0.00,,,0.44,Wunderground v.1.15,2013-06-28 11:50:00,
2013-06-28 07:55:00,56.0,55.2,29.78,ENE,67,4.0,6.0,97,0.00,,,0.45,Wunderground v.1.15,2013-06-28 11:55:00,
2013-06-28 08:00:00,56.0,55.2,29.77,ENE,67,5.0,5.0,97,0.00,,,0.45,Wunderground v.1.15,2013-06-28 12:00:00,
2013-06-28 08:10:00,56.1,55.3,29.77,East,86,5.0,5.0,97,0.00,,,0.45,Wunderground v.1.15,2013-06-28 12:10:00,
2013-06-28 08:15:00,56.1,55.3,29.77,NE,46,4.0,5.0,97,0.00,,,0.45,Wunderground v.1.15,2013-06-28 12:15:00,
2013-06-28 08:25:00,56.1,55.3,29.76,East,96,4.0,7.0,97,0.00,,,0.45,Wunderground v.1.15,2013-06-28 12:25:00,
2013-06-28 08:30:00,56.1,55.3,29.76,East,100,5.0,5.0,97,0.00,,,0.45,Wunderground v.1.15,2013-06-28 12:30:00,
2013-06-28 08:35:00,56.2,55.4,29.76,ENE,73,4.0,5.0,97,0.00,,,0.46,Wunderground v.1.15,2013-06-28 12:35:00,
2013-06-28 08:40:00,56.2,55.4,29.76,ESE,110,4.0,4.0,97,0.00,,,0.46,Wunderground v.1.15,2013-06-28 12:40:00,
2013-06-28 08:45:00,56.2,55.4,29.76,NE,51,4.0,4.0,97,0.00,,,0.46,Wunderground v.1.15,2013-06-28 12:45:00,
2013-06-28 08:50:00,56.2,55.4,29.75,ENE,75,4.0,4.0,97,0.00,,,0.46,Wunderground v.1.15,2013-06-28 12:50:00,
2013-06-28 08:55:00,56.2,55.4,29.75,East,94,4.0,5.0,97,0.00,,,0.46,Wunderground v.1.15,2013-06-28 12:55:00,
2013-06-28 09:00:00,56.2,55.4,29.75,ENE,65,5.0,5.0,97,0.00,,,0.46,Wunderground v.1.15,2013-06-28 13:00:00,
2013-06-28 09:05:00,56.1,55.3,29.75,East,84,5.0,6.0,97,0.00,,,0.46,Wunderground v.1.15,2013-06-28 13:05:00,
2013-06-28 09:10:00,56.1,55.3,29.74,East,91,5.0,5.0,97,0.00,,,0.47,Wunderground v.1.15,2013-06-28 13:10:00,
2013-06-28 09:15:00,56.2,55.4,29.74,East,101,5.0,5.0,97,0.00,,,0.47,Wunderground v.1.15,2013-06-28 13:15:00,
2013-06-28 09:20:00,56.3,55.5,29.74,ESE,103,4.0,4.0,97,0.00,,,0.47,Wunderground v.1.15,2013-06-28 13:20:00,
2013-06-28 09:25:00,56.2,55.4,29.74,ENE,59,5.0,5.0,97,0.00,,,0.47,Wunderground v.1.15,2013-06-28 13:25:00,
2013-06-28 09:30:00,56.3,55.5,29.74,ENE,66,5.0,6.0,97,0.00,,,0.47,Wunderground v.1.15,2013-06-28 13:30:00,
2013-06-28 09:35:00,56.4,55.6,29.74,East,99,5.0,6.0,97,0.00,,,0.47,Wunderground v.1.15,2013-06-28 13:35:00,
2013-06-28 09:40:00,56.4,55.6,29.73,ENE,63,5.0,5.0,97,0.00,,,0.47,Wunderground v.1.15,2013-06-28 13:40:00,
2013-06-28 09:45:00,56.4,55.6,29.73,ESE,105,5.0,6.0,97,0.00,,,0.47,Wunderground v.1.15,2013-06-28 13:45:00,
2013-06-28 09:50:00,56.3,55.5,29.73,East,88,5.0,6.0,97,0.00,,,0.47,Wunderground v.1.15,2013-06-28 13:50:00,
2013-06-28 09:55:00,56.2,55.4,29.72,East,89,6.0,7.0,97,0.00,,,0.47,Wunderground v.1.15,2013-06-28 13:55:00,
2013-06-28 10:00:00,56.2,55.4,29.72,ENE,57,6.0,6.0,97,0.00,,,0.47,Wunderground v.1.15,2013-06-28 14:00:00,
2013-06-28 10:05:00,56.2,55.4,29.72,East,96,6.0,6.0,97,0.00,,,0.48,Wunderground v.1.15,2013-06-28 14:05:00,
2013-06-28 10:10:00,56.2,55.4,29.72,ENE,68,5.0,5.0,97,0.00,,,0.48,Wunderground v.1.15,2013-06-28 14:10:00,
2013-06-28 10:15:00,56.3,55.5,29.72,East,97,4.0,5.0,97,0.00,,,0.48,Wunderground v.1.15,2013-06-28 14:15:00,
2013-06-28 10:20:00,56.4,55.6,29.72,NE,53,4.0,4.0,97,0.00,,,0.48,Wunderground v.1.15,2013-06-28 14:20:00,
2013-06-28 10:25:00,56.5,55.7,29.72,NE,34,4.0,4.0,97,0.00,,,0.48,Wunderground v.1.15,2013-06-28 14:25:00,
2013-06-28 10:30:00,56.6,55.8,29.72,East,94,3.0,7.0,97,0.00,,,0.48,Wunderground v.1.15,2013-06-28 14:30:00,
2013-06-28 10:35:00,56.6,55.8,29.71,NNE,22,3.0,7.0,97,0.00,,,0.48,Wunderground v.1.15,2013-06-28 14:35:00,
2013-06-28 10:40:00,56.7,55.9,29.71,ENE,67,3.0,4.0,97,0.00,,,0.48,Wunderground v.1.15,2013-06-28 14:40:00,
2013-06-28 10:45:00,56.7,55.9,29.72,ENE,69,3.0,4.0,97,0.00,,,0.48,Wunderground v.1.15,2013-06-28 14:45:00,
2013-06-28 10:55:00,56.8,56.0,29.70,ESE,107,3.0,5.0,97,0.00,,,0.49,Wunderground v.1.15,2013-06-28 14:55:00,
2013-06-28 11:00:00,56.8,56.0,29.70,East,81,4.0,4.0,97,0.00,,,0.49,Wunderground v.1.15,2013-06-28 15:00:00,
2013-06-28 11:05:00,56.8,56.0,29.70,NNE,21,4.0,4.0,97,0.00,,,0.49,Wunderground v.1.15,2013-06-28 15:05:00,
2013-06-28 11:10:00,56.9,56.1,29.70,NE,53,4.0,5.0,97,0.00,,,0.50,Wunderground v.1.15,2013-06-28 15:10:00,
2013-06-28 11:15:00,56.9,56.1,29.72,NNE,26,3.0,5.0,97,0.00,,,0.50,Wunderground v.1.15,2013-06-28 15:15:00,
2013-06-28 11:20:00,56.9,56.1,29.71,SE,131,2.0,3.0,97,0.20,,,0.52,Wunderground v.1.15,2013-06-28 15:20:00,
2013-06-28 11:25:00,57.1,56.3,29.71,East,98,3.0,3.0,97,0.10,,,0.52,Wunderground v.1.15,2013-06-28 15:25:00,
2013-06-28 11:30:00,57.2,56.4,29.71,NE,48,3.0,3.0,97,0.06,,,0.52,Wunderground v.1.15,2013-06-28 15:30:00,
2013-06-28 11:35:00,57.3,56.5,29.70,ENE,63,4.0,4.0,97,0.04,,,0.52,Wunderground v.1.15,2013-06-28 15:35:00,
2013-06-28 11:40:00,57.4,56.6,29.70,ESE,105,3.0,3.0,97,0.00,,,0.52,Wunderground v.1.15,2013-06-28 15:40:00,
2013-06-28 11:45:00,57.3,56.5,29.70,ENE,61,4.0,4.0,97,0.00,,,0.52,Wunderground v.1.15,2013-06-28 15:45:00,
2013-06-28 11:50:00,57.5,56.7,29.70,NE,44,4.0,4.0,97,0.00,,,0.52,Wunderground v.1.15,2013-06-28 15:50:00,
2013-06-28 12:00:00,57.7,56.9,29.70,NE,51,2.0,4.0,97,0.00,,,0.53,Wunderground v.1.15,2013-06-28 16:00:00,
2013-06-28 12:05:00,57.6,56.8,29.70,NE,56,3.0,5.0,97,0.00,,,0.53,Wunderground v.1.15,2013-06-28 16:05:00,
2013-06-28 12:10:00,57.6,56.8,29.70,East,87,4.0,4.0,97,0.00,,,0.53,Wunderground v.1.15,2013-06-28 16:10:00,
2013-06-28 12:15:00,57.7,56.9,29.70,East,88,4.0,5.0,97,0.00,,,0.53,Wunderground v.1.15,2013-06-28 16:15:00,
2013-06-28 12:20:00,57.8,57.0,29.70,ENE,65,3.0,3.0,97,0.00,,,0.53,Wunderground v.1.15,2013-06-28 16:20:00,
2013-06-28 12:25:00,58.0,57.2,29.70,NE,56,3.0,5.0,97,0.00,,,0.53,Wunderground v.1.15,2013-06-28 16:25:00,
2013-06-28 12:35:00,57.9,57.1,29.70,NE,46,3.0,4.0,97,0.00,,,0.53,Wunderground v.1.15,2013-06-28 16:35:00,
2013-06-28 12:40:00,57.8,57.0,29.69,ENE,62,4.0,4.0,97,0.00,,,0.54,Wunderground v.1.15,2013-06-28 16:40:00,
2013-06-28 12:45:00,58.0,57.2,29.69,NE,53,3.0,4.0,97,0.00,,,0.54,Wunderground v.1.15,2013-06-28 16:45:00,
2013-06-28 12:55:00,58.0,57.2,29.69,ENE,78,4.0,5.0,97,0.00,,,0.54,Wunderground v.1.15,2013-06-28 16:55:00,
2013-06-28 13:00:00,58.0,57.2,29.69,East,79,4.0,4.0,97,0.00,,,0.54,Wunderground v.1.15,2013-06-28 17:00:00,
2013-06-28 13:05:00,58.1,57.3,29.68,ESE,121,4.0,4.0,97,0.00,,,0.54,Wunderground v.1.15,2013-06-28 17:05:00,
2013-06-28 13:10:00,58.2,57.4,29.68,East,86,3.0,5.0,97,0.00,,,0.54,Wunderground v.1.15,2013-06-28 17:10:00,
2013-06-28 13:15:00,58.3,57.5,29.68,NE,56,3.0,5.0,97,0.00,,,0.54,Wunderground v.1.15,2013-06-28 17:15:00,
2013-06-28 13:25:00,58.4,57.6,29.68,East,82,3.0,3.0,97,0.00,,,0.54,Wunderground v.1.15,2013-06-28 17:25:00,
2013-06-28 13:35:00,58.5,57.7,29.68,NE,51,3.0,3.0,97,0.00,,,0.54,Wunderground v.1.15,2013-06-28 17:35:00,
2013-06-28 13:45:00,58.4,57.6,29.68,ENE,67,3.0,5.0,97,0.00,,,0.54,Wunderground v.1.15,2013-06-28 17:45:00,
2013-06-28 13:50:00,58.5,57.7,29.68,East,92,2.0,3.0,97,0.00,,,0.54,Wunderground v.1.15,2013-06-28 17:50:00,
2013-06-28 13:55:00,58.6,57.8,29.68,NE,53,2.0,4.0,97,0.00,,,0.55,Wunderground v.1.15,2013-06-28 17:55:00,
2013-06-28 14:00:00,58.7,57.9,29.68,ENE,71,2.0,2.0,97,0.00,,,0.55,Wunderground v.1.15,2013-06-28 18:00:00,
2013-06-28 14:05:00,58.9,58.1,29.68,NE,38,2.0,2.0,97,0.00,,,0.55,Wunderground v.1.15,2013-06-28 18:05:00,
2013-06-28 14:15:00,59.0,58.2,29.68,ENE,59,2.0,2.0,97,0.00,,,0.55,Wunderground v.1.15,2013-06-28 18:15:00,
2013-06-28 14:20:00,59.0,58.2,29.68,ENE,78,2.0,3.0,97,0.00,,,0.55,Wunderground v.1.15,2013-06-28 18:20:00,
2013-06-28 14:25:00,59.1,58.2,29.68,East,79,2.0,3.0,97,0.00,,,0.55,Wunderground v.1.15,2013-06-28 18:25:00,
2013-06-28 14:30:00,59.1,58.2,29.68,NE,46,2.0,2.0,97,0.00,,,0.55,Wunderground v.1.15,2013-06-28 18:30:00,
2013-06-28 14:35:00,59.1,58.2,29.68,NE,42,2.0,2.0,97,0.00,,,0.55,Wunderground v.1.15,2013-06-28 18:35:00,
2013-06-28 14:40:00,59.1,58.2,29.68,ENE,61,2.0,3.0,97,0.00,,,0.55,Wunderground v.1.15,2013-06-28 18:40:00,
2013-06-28 14:45:00,59.1,58.2,29.68,ENE,59,2.0,4.0,97,0.00,,,0.56,Wunderground v.1.15,2013-06-28 18:45:00,
2013-06-28 14:50:00,59.1,58.2,29.67,ENE,59,3.0,3.0,97,0.33,,,0.59,Wunderground v.1.15,2013-06-28 18:50:00,
2013-06-28 14:55:00,59.3,58.4,29.67,NE,51,3.0,3.0,97,0.49,,,0.63,Wunderground v.1.15,2013-06-28 18:55:00,
2013-06-28 15:00:00,59.3,58.4,29.67,NE,50,2.0,2.0,97,0.18,,,0.64,Wunderground v.1.15,2013-06-28 19:00:00,
2013-06-28 15:05:00,59.4,58.5,29.68,NE,51,1.0,2.0,97,0.12,,,0.65,Wunderground v.1.15,2013-06-28 19:05:00,
2013-06-28 15:10:00,59.5,58.6,29.67,ENE,61,1.0,1.0,97,0.08,,,0.65,Wunderground v.1.15,2013-06-28 19:10:00,
2013-06-28 15:15:00,59.6,58.7,29.67,NE,40,1.0,2.0,97,0.06,,,0.66,Wunderground v.1.15,2013-06-28 19:15:00,
2013-06-28 15:20:00,59.9,59.0,29.67,NE,46,1.0,1.0,97,0.06,,,0.66,Wunderground v.1.15,2013-06-28 19:20:00,
2013-06-28 15:30:00,59.9,59.0,29.67,NE,42,1.0,3.0,97,0.00,,,0.66,Wunderground v.1.15,2013-06-28 19:30:00,
2013-06-28 15:35:00,60.0,59.1,29.67,ENE,67,2.0,3.0,97,0.00,,,0.66,Wunderground v.1.15,2013-06-28 19:35:00,
2013-06-28 15:45:00,60.1,59.2,29.67,East,82,2.0,3.0,97,0.00,,,0.66,Wunderground v.1.15,2013-06-28 19:45:00,
2013-06-28 15:50:00,60.1,59.2,29.67,ENE,74,3.0,3.0,97,0.00,,,0.66,Wunderground v.1.15,2013-06-28 19:50:00,
2013-06-28 15:55:00,60.1,59.2,29.67,NNE,31,3.0,3.0,97,0.00,,,0.66,Wunderground v.1.15,2013-06-28 19:55:00,
2013-06-28 16:00:00,60.1,59.2,29.67,East,80,3.0,3.0,97,0.00,,,0.66,Wunderground v.1.15,2013-06-28 20:00:00,
2013-06-28 16:05:00,60.2,59.3,29.67,ENE,65,2.0,3.0,97,0.00,,,0.66,Wunderground v.1.15,2013-06-28 20:05:00,
2013-06-28 16:10:00,60.2,59.3,29.67,ENE,76,1.0,1.0,97,0.00,,,0.66,Wunderground v.1.15,2013-06-28 20:10:00,
2013-06-28 16:15:00,60.3,59.4,29.67,ENE,67,1.0,3.0,97,0.00,,,0.66,Wunderground v.1.15,2013-06-28 20:15:00,
2013-06-28 16:20:00,60.3,59.4,29.66,East,90,2.0,3.0,97,0.00,,,0.66,Wunderground v.1.15,2013-06-28 20:20:00,
2013-06-28 16:25:00,60.3,59.4,29.66,ENE,77,2.0,3.0,97,0.00,,,0.66,Wunderground v.1.15,2013-06-28 20:25:00,
2013-06-28 16:30:00,60.3,59.4,29.66,ENE,66,2.0,2.0,97,0.00,,,0.66,Wunderground v.1.15,2013-06-28 20:30:00,
2013-06-28 16:35:00,60.4,59.5,29.67,ENE,63,2.0,4.0,97,0.00,,,0.66,Wunderground v.1.15,2013-06-28 20:35:00,
2013-06-28 16:45:00,60.3,59.4,29.67,East,90,3.0,3.0,97,0.00,,,0.66,Wunderground v.1.15,2013-06-28 20:45:00,
2013-06-28 16:50:00,60.4,59.5,29.66,ENE,76,2.0,2.0,97,0.00,,,0.66,Wunderground v.1.15,2013-06-28 20:50:00,
2013-06-28 17:00:00,60.7,59.8,29.66,East,82,2.0,2.0,97,0.00,,,0.66,Wunderground v.1.15,2013-06-28 21:00:00,
2013-06-28 17:10:00,60.7,59.8,29.66,East,79,3.0,4.0,97,0.00,,,0.66,Wunderground v.1.15,2013-06-28 21:10:00,
2013-06-28 17:15:00,60.8,59.9,29.65,ENE,76,3.0,4.0,97,0.00,,,0.66,Wunderground v.1.15,2013-06-28 21:15:00,
2013-06-28 17:20:00,60.9,60.0,29.65,East,80,3.0,3.0,97,0.00,,,0.66,Wunderground v.1.15,2013-06-28 21:20:00,
2013-06-28 17:25:00,61.1,60.2,29.65,East,84,3.0,3.0,97,0.00,,,0.66,Wunderground v.1.15,2013-06-28 21:25:00,
2013-06-28 17:30:00,61.0,60.1,29.65,NE,49,4.0,4.0,97,0.00,,,0.66,Wunderground v.1.15,2013-06-28 21:30:00,
2013-06-28 17:35:00,60.8,59.9,29.65,ESE,115,4.0,5.0,97,0.00,,,0.66,Wunderground v.1.15,2013-06-28 21:35:00,
2013-06-28 17:40:00,60.9,60.0,29.65,ESE,111,3.0,3.0,97,0.00,,,0.66,Wunderground v.1.15,2013-06-28 21:40:00,
2013-06-28 17:45:00,60.9,60.0,29.66,East,79,2.0,3.0,97,0.00,,,0.66,Wunderground v.1.15,2013-06-28 21:45:00,
2013-06-28 17:50:00,60.9,60.0,29.66,East,98,2.0,2.0,97,0.00,,,0.66,Wunderground v.1.15,2013-06-28 21:50:00,
2013-06-28 17:55:00,60.9,60.0,29.67,East,86,2.0,2.0,97,0.00,,,0.66,Wunderground v.1.15,2013-06-28 21:55:00,
2013-06-28 18:00:00,61.0,60.1,29.67,ESE,105,2.0,2.0,97,0.00,,,0.66,Wunderground v.1.15,2013-06-28 22:00:00,
2013-06-28 18:05:00,61.1,60.2,29.67,ENE,69,3.0,3.0,97,0.00,,,0.66,Wunderground v.1.15,2013-06-28 22:05:00,
2013-06-28 18:10:00,61.1,60.2,29.67,NE,47,3.0,4.0,97,0.00,,,0.66,Wunderground v.1.15,2013-06-28 22:10:00,
2013-06-28 18:15:00,61.2,60.3,29.67,ENE,69,3.0,4.0,97,0.00,,,0.66,Wunderground v.1.15,2013-06-28 22:15:00,
2013-06-28 18:25:00,61.2,60.3,29.66,ESE,109,3.0,3.0,97,0.00,,,0.66,Wunderground v.1.15,2013-06-28 22:25:00,
2013-06-28 18:30:00,61.1,60.2,29.67,NE,46,3.0,3.0,97,0.00,,,0.66,Wunderground v.1.15,2013-06-28 22:30:00,
2013-06-28 18:35:00,61.1,60.2,29.67,East,97,2.0,3.0,97,0.00,,,0.66,Wunderground v.1.15,2013-06-28 22:35:00,
2013-06-28 18:45:00,61.1,60.2,29.66,NE,49,2.0,3.0,97,0.00,,,0.66,Wunderground v.1.15,2013-06-28 22:45:00,
2013-06-28 18:50:00,61.1,60.2,29.67,NE,54,3.0,5.0,97,0.00,,,0.66,Wunderground v.1.15,2013-06-28 22:50:00,
2013-06-28 18:55:00,61.1,60.2,29.66,East,79,3.0,5.0,97,0.00,,,0.66,Wunderground v.1.15,2013-06-28 22:55:00,
2013-06-28 19:00:00,61.1,60.2,29.67,ENE,62,3.0,5.0,97,0.00,,,0.66,Wunderground v.1.15,2013-06-28 23:00:00,
2013-06-28 19:05:00,61.1,60.2,29.67,ENE,63,3.0,5.0,97,0.00,,,0.66,Wunderground v.1.15,2013-06-28 23:05:00,
2013-06-28 19:15:00,61.1,60.2,29.67,East,94,2.0,3.0,97,0.00,,,0.66,Wunderground v.1.15,2013-06-28 23:15:00,
2013-06-28 19:20:00,61.1,60.2,29.67,ENE,72,2.0,3.0,97,0.00,,,0.66,Wunderground v.1.15,2013-06-28 23:20:00,
2013-06-28 19:30:00,61.1,60.2,29.67,NE,51,2.0,2.0,97,0.00,,,0.66,Wunderground v.1.15,2013-06-28 23:30:00,
2013-06-28 19:40:00,61.0,60.1,29.67,ENE,78,1.0,1.0,97,0.00,,,0.66,Wunderground v.1.15,2013-06-28 23:40:00,
2013-06-28 19:45:00,61.0,60.1,29.67,ENE,68,1.0,3.0,97,0.00,,,0.66,Wunderground v.1.15,2013-06-28 23:45:00,
2013-06-28 19:50:00,61.0,60.1,29.67,ENE,62,2.0,2.0,97,0.00,,,0.66,Wunderground v.1.15,2013-06-28 23:50:00,
2013-06-28 19:55:00,61.0,60.1,29.67,ENE,74,2.0,2.0,97,0.00,,,0.66,Wunderground v.1.15,2013-06-28 23:55:00,
2013-06-28 20:00:00,61.1,60.2,29.67,ENE,74,1.0,1.0,97,0.00,,,0.66,Wunderground v.1.15,2013-06-29 00:00:00,
2013-06-28 20:05:00,61.1,60.2,29.68,ENE,74,1.0,1.0,97,0.00,,,0.66,Wunderground v.1.15,2013-06-29 00:05:00,
2013-06-28 20:10:00,61.1,60.2,29.68,ENE,72,1.0,1.0,97,0.00,,,0.66,Wunderground v.1.15,2013-06-29 00:10:00,
2013-06-28 20:15:00,61.1,60.2,29.68,ENE,71,1.0,1.0,97,0.00,,,0.66,Wunderground v.1.15,2013-06-29 00:15:00,
2013-06-28 20:25:00,61.1,60.2,29.68,ENE,71,1.0,1.0,97,0.00,,,0.66,Wunderground v.1.15,2013-06-29 00:25:00,
2013-06-28 20:30:00,61.1,60.2,29.68,East,81,1.0,2.0,97,0.00,,,0.67,Wunderground v.1.15,2013-06-29 00:30:00,
2013-06-28 20:35:00,61.1,60.2,29.67,ESE,116,1.0,2.0,97,0.10,,,0.68,Wunderground v.1.15,2013-06-29 00:35:00,
2013-06-28 20:40:00,61.1,60.2,29.67,East,89,2.0,2.0,97,0.10,,,0.68,Wunderground v.1.15,2013-06-29 00:40:00,
2013-06-28 20:50:00,61.0,60.1,29.67,East,80,3.0,3.0,97,0.10,,,0.70,Wunderground v.1.15,2013-06-29 00:50:00,
2013-06-28 20:55:00,61.0,60.1,29.67,ENE,65,2.0,3.0,97,0.09,,,0.70,Wunderground v.1.15,2013-06-29 00:55:00,
2013-06-28 21:00:00,61.0,60.1,29.67,NE,55,2.0,2.0,97,0.08,,,0.71,Wunderground v.1.15,2013-06-29 01:00:00,
2013-06-28 21:05:00,61.0,60.4,29.67,ENE,69,2.0,2.0,98,0.07,,,0.71,Wunderground v.1.15,2013-06-29 01:05:00,
2013-06-28 21:10:00,61.0,60.4,29.67,ENE,69,1.0,1.0,98,0.07,,,0.72,Wunderground v.1.15,2013-06-29 01:10:00,
2013-06-28 21:15:00,61.0,60.4,29.68,ENE,69,0.0,1.0,98,0.06,,,0.72,Wunderground v.1.15,2013-06-29 01:15:00,
2013-06-28 21:20:00,61.0,60.4,29.68,East,95,1.0,1.0,98,0.04,,,0.72,Wunderground v.1.15,2013-06-29 01:20:00,
2013-06-28 21:25:00,61.0,60.4,29.69,SE,127,1.0,1.0,98,0.00,,,0.72,Wunderground v.1.15,2013-06-29 01:25:00,
2013-06-28 21:30:00,61.0,60.4,29.69,ESE,120,1.0,2.0,98,0.00,,,0.72,Wunderground v.1.15,2013-06-29 01:30:00,
2013-06-28 21:35:00,61.0,60.4,29.69,NE,48,1.0,2.0,98,0.00,,,0.72,Wunderground v.1.15,2013-06-29 01:35:00,
2013-06-28 21:40:00,61.0,60.4,29.70,NE,48,1.0,1.0,98,0.00,,,0.72,Wunderground v.1.15,2013-06-29 01:40:00,
2013-06-28 21:45:00,61.0,60.4,29.70,East,89,0.0,2.0,98,0.00,,,0.72,Wunderground v.1.15,2013-06-29 01:45:00,
2013-06-28 21:50:00,61.0,60.4,29.70,East,97,1.0,1.0,98,0.00,,,0.72,Wunderground v.1.15,2013-06-29 01:50:00,
2013-06-28 21:55:00,61.0,60.4,29.69,East,97,1.0,1.0,98,0.00,,,0.72,Wunderground v.1.15,2013-06-29 01:55:00,
2013-06-28 22:00:00,61.0,60.4,29.69,ENE,71,1.0,1.0,98,0.00,,,0.72,Wunderground v.1.15,2013-06-29 02:00:00,
2013-06-28 22:05:00,60.9,60.3,29.69,ESE,111,1.0,3.0,98,0.00,,,0.72,Wunderground v.1.15,2013-06-29 02:05:00,
2013-06-28 22:15:00,61.0,60.4,29.69,ENE,78,1.0,1.0,98,0.00,,,0.72,Wunderground v.1.15,2013-06-29 02:15:00,
2013-06-28 22:25:00,60.9,60.3,29.68,East,80,0.0,1.0,98,0.00,,,0.72,Wunderground v.1.15,2013-06-29 02:25:00,
2013-06-28 22:30:00,60.9,60.3,29.68,East,80,0.0,0.0,98,0.00,,,0.72,Wunderground v.1.15,2013-06-29 02:30:00,
2013-06-28 22:35:00,60.9,60.3,29.68,East,80,0.0,1.0,98,0.00,,,0.72,Wunderground v.1.15,2013-06-29 02:35:00,
2013-06-28 22:40:00,60.9,60.3,29.68,SSE,160,0.0,1.0,98,0.00,,,0.72,Wunderground v.1.15,2013-06-29 02:40:00,
2013-06-28 22:45:00,60.9,60.3,29.68,ESE,106,1.0,1.0,98,0.00,,,0.72,Wunderground v.1.15,2013-06-29 02:45:00,
2013-06-28 22:50:00,60.9,60.3,29.68,ESE,106,0.0,0.0,98,0.00,,,0.72,Wunderground v.1.15,2013-06-29 02:50:00,
2013-06-28 23:00:00,60.9,60.3,29.68,ESE,103,0.0,0.0,98,0.08,,,0.74,Wunderground v.1.15,2013-06-29 03:00:00,
2013-06-28 23:05:00,60.9,60.3,29.67,ESE,109,1.0,3.0,98,0.51,,,0.78,Wunderground v.1.15,2013-06-29 03:05:00,
2013-06-28 23:10:00,60.9,60.3,29.67,ENE,61,1.0,4.0,98,0.10,,,0.78,Wunderground v.1.15,2013-06-29 03:10:00,
2013-06-28 23:20:00,60.8,60.2,29.67,East,80,2.0,2.0,98,0.07,,,0.79,Wunderground v.1.15,2013-06-29 03:20:00,
2013-06-28 23:25:00,60.8,60.2,29.67,East,80,1.0,2.0,98,0.05,,,0.79,Wunderground v.1.15,2013-06-29 03:25:00,
2013-06-28 23:30:00,60.9,60.3,29.68,East,80,1.0,1.0,98,0.05,,,0.80,Wunderground v.1.15,2013-06-29 03:30:00,
2013-06-28 23:35:00,60.8,60.2,29.68,East,80,1.0,1.0,98,0.05,,,0.80,Wunderground v.1.15,2013-06-29 03:35:00,
2013-06-28 23:40:00,60.8,60.2,29.68,East,80,0.0,0.0,98,0.04,,,0.80,Wunderground v.1.15,2013-06-29 03:40:00,
2013-06-28 23:45:00,60.8,60.2,29.68,East,80,0.0,0.0,98,0.00,,,0.80,Wunderground v.1.15,2013-06-29 03:45:00,
2013-06-28 23:55:00,60.9,60.3,29.69,East,80,0.0,1.0,98,0.00,,,0.80,Wunderground v.1.15,2013-06-29 03:55:00,